Probability
0 0 0 0 1 2 2 1 0 0 0 0 0 0 0 0 0 0 0 0 0 0 0 0 0 0 0 0 0 0 0 0 0 0 0 0 0 0 0 0 0 0 0
0 0 0 0 0 1 1 0 0 0 0 0 0 0 0 0 0 0 0 0 0 0 0 0 0 0 0 0 0 0 0 0 0 0 0 0 0 0 0 0 0 0 0
0 0 0 0 0 0 0 0 0 0 0 0 0 0 0 0 0 0 0 0 0 0 0 0 0 0 0 0 0 0 0 0 0 0 0 0 0 0 0 0 0 0 0
0 0 0 0 0 0 0 0 0 0 0 0 0 0 0 0 0 0 0 0 0 0 0 0 0 0 0 0 0 0 0 0 0 0 0 0 0 0 0 0 0 0 0
0 0 0 0 0 0 0 0 0 0 0 0 0 0 0 0 0 0 0 0 0 0 0 0 0 0 0 0 0 0 0 0 0 0 0 0 0 0 0 0 0 0 0
0 0 0 0 0 0 0 0 0 0 0 0 0 0 0 0 0 0 0 0 0 0 0 0 0 0 0 0 0 0 0 0 0 0 0 0 0 0 0 0 0 0 0
0 0 0 0 0 0 0 0 0 0 0 0 0 0 0 0 0 0 0 0 0 0 0 0 0 0 0 0 0 0 0 0 0 0 0 0 0 0 0 0 0 0 0
0 0 0 0 0 0 0 0 0 0 0 0 0 0 0 0 0 0 0 0 0 0 0 0 0 0 0 0 0 0 0 0 0 0 0 0 0 0 0 0 0 0 0
0 0 0 0 0 0 0 0 0 0 0 0 0 0 0 0 0 0 0 0 0 0 0 0 0 0 0 0 0 0 0 0 0 0 0 0 0 0 0 0 0 0 0
0 0 0 0 0 0 0 0 0 0 0 0 0 0 0 0 0 0 0 0 0 0 0 0 0 0 0 0 0 0 0 0 0 0 0 0 0 0 0 0 0 0 0
0 0 0 0 0 0 0 0 0 0 0 0 0 0 0 0 0 0 0 0 0 0 0 0 0 0 0 0 0 0 0 0 0 0 0 0 0 0 0 0 0 0 0
0 0 0 0 0 0 0 0 0 0 0 0 0 0 0 0 0 0 0 0 0 0 0 0 0 0 0 0 0 0 0 0 0 0 0 0 0 0 0 0 0 0 0
0 0 0 0 0 0 0 0 0 0 0 0 0 0 0 0 0 0 0 0 0 0 0 0 0 0 0 0 0 0 0 0 0 0 0 0 0 0 0 0 0 0 0
0 0 0 0 0 0 0 0 0 0 0 0 0 0 0 0 0 0 0 0 0 0 0 0 0 0 0 0 0 0 0 0 0 0 0 0 0 0 0 0 0 0 0
0 0 0 0 0 0 0 0 0 0 0 0 0 0 0 0 0 0 0 0 0 0 0 0 0 0 0 0 0 0 0 0 0 0 0 0 0 0 0 0 0 0 0
0 0 0 0 0 0 0 0 0 0 0 0 0 0 0 0 0 0 0 0 0 0 0 0 0 0 0 0 0 0 0 0 0 0 0 0 0 0 0 0 0 0 0
0 0 0 0 0 0 0 0 0 0 0 0 0 0 0 0 0 0 0 0 0 0 0 0 0 0 0 0 0 0 0 0 0 0 0 0 0 0 0 0 0 0 0
0 0 0 0 0 0 0 0 0 0 0 0 0 0 0 0 0 0 0 0 0 0 0 0 0 0 0 0 0 0 0 0 0 0 0 0 0 0 0 0 0 0 0
0 0 0 0 0 0 0 0 0 0 0 0 0 0 0 0 0 0 0 0 0 0 0 0 0 0 0 0 0 0 0 0 0 0 0 0 0 0 0 0 0 0 0
0 0 0 0 0 0 0 0 0 0 0 0 0 0 0 0 0 0 0 0 0 0 0 0 0 0 0 0 0 0 0 0 0 0 0 0 0 0 0 0 0 0 0
0 0 0 0 0 0 0 0 0 0 0 0 0 0 0 0 0 0 0 0 0 0 0 0 0 0 0 0 0 0 0 0 0 0 0 0 0 0 0 0 0 0 0
0 0 0 0 0 0 0 0 0 0 0 0 0 0 0 0 0 0 0 0 0 0 0 0 0 0 0 0 0 0 0 0 0 0 0 0 0 0 0 0 0 0 0
0 0 0 0 0 0 0 0 0 0 0 0 0 0 0 0 0 0 0 0 0 0 0 0 0 0 0 0 0 0 0 0 0 0 0 0 0 0 0 0 0 0 0
0 0 0 0 0 0 0 0 0 0 0 0 0 0 0 0 0 0 0 0 0 0 0 0 0 0 0 0 0 0 0 0 0 0 0 0 0 0 0 0 0 0 0
0 0 0 0 0 0 0 0 0 0 0 0 0 0 0 0 0 0 0 0 0 0 0 0 0 0 0 0 0 0 0 0 0 0 0 0 0 0 0 0 0 0 0
0 0 0 0 0 0 0 0 0 0 0 0 0 0 0 0 0 0 0 0 0 0 0 0 0 0 0 0 0 0 0 0 0 0 0 0 0 0 0 0 0 0 0
Wind_Speed
4 4 3 3 3 3 3 3 3 2 2 3 2 2 2 2 2 2 2 3 3 3 2 3 3 2 2 2 2 2 2 2 5 5 2 2 2 2 2 2 3 3 5
4 4 4 3 3 3 3 3 3 3 3 2 2 2 2 2 2 3 3 3 3 3 3 3 3 2 2 2 2 2 2 2 4 6 4 2 3 2 3 4 4 4 4
4 4 3 3 3 3 3 3 3 3 3 3 3 3 3 2 2 2 3 3 3 3 3 3 3 3 3 2 2 2 2 2 3 4 5 3 2 2 3 4 4 4 5
3 4 4 4 4 3 3 3 3 3 3 3 3 3 2 2 2 2 2 3 2 2 2 3 3 4 4 3 3 3 2 3 3 4 4 4 3 2 2 3 4 4 5
3 3 4 3 3 2 2 2 2 3 3 3 3 2 2 2 2 2 3 3 3 3 2 3 3 3 3 3 3 3 3 3 3 3 4 4 3 3 3 3 5 5 5
3 3 2 2 2 2 2 2 2 2 2 2 3 3 3 2 3 4 3 3 3 3 3 3 3 3 3 5 5 4 4 4 4 4 4 5 5 4 3 4 4 5 5
2 2 2 1 2 2 2 3 3 3 2 3 3 3 3 3 4 4 4 3 3 3 3 2 2 2 2 3 4 4 5 5 6 5 6 6 6 5 4 5 5 6 7
2 2 2 2 2 2 2 3 3 2 3 3 3 3 3 3 4 4 5 3 3 3 3 3 3 2 2 2 2 3 4 4 5 5 6 6 6 5 5 5 6 6 7
3 3 2 3 3 3 3 4 3 3 3 3 3 3 3 3 4 5 4 2 3 3 3 2 3 3 4 3 2 3 4 4 5 6 8 8 9 9 6 3 3 4 6
4 3 3 3 3 4 4 3 2 3 3 2 2 2 3 3 4 4 4 2 3 2 2 2 3 4 4 4 3 4 5 5 3 4 5 7 6 6 7 5 4 4 4
2 2 3 3 3 3 3 2 2 2 2 2 2 2 2 2 3 4 4 2 3 2 2 2 2 4 5 5 4 4 5 4 3 4 4 4 4 4 4 4 4 5 5
1 2 2 2 2 2 2 2 2 3 3 3 2 2 2 2 3 4 5 4 2 2 3 2 3 5 5 6 5 5 6 4 2 3 4 4 4 4 4 4 5 5 6
1 2 2 2 2 2 2 3 2 3 3 3 3 3 3 2 3 5 5 5 5 3 2 3 4 5 5 4 5 6 4 2 2 3 4 5 4 4 3 3 3 4 5
3 3 2 2 2 2 2 3 3 3 4 4 4 4 3 2 2 2 3 4 4 4 2 3 4 5 4 3 3 4 2 2 3 4 4 4 3 3 3 3 3 3 4
3 2 2 2 3 3 3 3 4 4 4 4 4 3 4 4 5 5 3 3 3 3 1 0 1 1 2 2 2 2 2 2 3 3 3 4 4 4 4 3 3 3 3
3 3 3 3 3 3 3 3 4 4 4 5 5 4 3 4 4 5 6 6 5 3 1 2 3 3 3 3 3 3 3 3 3 3 3 3 4 4 4 4 3 4 5
4 4 3 3 3 3 3 3 3 3 4 5 6 6 5 4 4 5 5 5 4 4 2 3 4 4 4 3 3 3 3 3 2 3 3 3 4 4 4 4 4 4 5
3 4 4 3 3 4 4 4 3 3 3 3 4 6 6 5 5 5 4 3 3 3 3 4 4 4 3 3 3 3 3 3 3 3 3 3 3 4 4 5 5 5 6
4 3 3 3 3 3 3 3 3 3 3 3 2 3 4 4 4 4 3 3 3 4 4 4 4 3 3 3 4 3 4 4 4 3 4 4 4 4 4 5 5 6 6
3 3 3 3 3 3 3 3 3 3 3 3 3 3 2 2 2 3 3 3 4 4 4 4 4 4 4 4 4 3 3 4 4 4 4 4 4 4 5 6 5 5 5
3 3 4 3 3 4 4 4 4 4 4 4 4 4 5 3 4 4 4 4 4 4 4 4 4 4 4 4 3 4 5 4 4 4 4 4 4 4 4 5 5 5 5
3 3 3 4 3 3 4 4 4 4 4 4 3 4 7 4 4 4 4 4 4 4 4 4 4 4 4 4 4 4 5 5 5 5 5 5 4 5 4 5 5 5 5
2 3 3 3 3 3 3 3 3 4 4 4 3 3 4 4 4 5 5 4 4 4 4 4 4 4 4 4 4 5 6 6 6 5 5 5 5 5 5 6 6 6 6
3 3 3 3 3 3 3 3 3 4 4 3 4 4 4 4 4 5 4 4 4 4 4 4 5 6 7 5 4 5 6 6 5 5 7 6 6 5 5 6 6 7 7
3 3 3 3 3 3 3 3 4 4 4 4 4 4 4 4 4 4 4 4 5 5 5 5 4 5 7 8 7 7 8 9 7 5 5 5 6 6 6 6 6 6 7
2 2 2 2 3 3 3 4 4 4 4 4 4 4 4 4 4 4 4 4 4 5 5 5 6 7 8 7 8 9 10 9 8 8 6 5 6 6 6 6 7 6 7
Wind_Direction
189 192 196 198 192 187 193 198 195 194 193 197 196 191 193 201 197 192 196 190 197 210 211 214 230 228 232 238 228 226 234 227 252 275 279 282 268 273 293 282 274 273 281
191 192 197 194 187 190 201 201 189 191 193 194 194 195 198 202 201 194 200 204 208 212 213 212 230 229 233 238 237 235 239 238 243 267 278 279 270 270 276 278 287 284 279
183 188 191 193 191 199 205 198 187 188 189 189 190 197 202 204 203 202 203 211 214 218 213 213 225 219 230 235 236 241 246 255 248 260 273 275 272 282 287 285 283 277 284
181 188 196 199 197 197 197 192 191 188 188 191 195 201 203 202 209 206 206 209 216 225 221 219 223 221 226 228 234 238 243 252 256 259 269 276 276 275 279 288 298 292 292
183 193 204 201 192 183 188 191 193 194 195 185 184 193 197 205 214 206 213 212 214 226 229 227 226 224 234 234 236 236 235 241 253 257 266 277 276 288 283 284 291 301 289
188 197 193 186 183 187 192 191 192 198 194 184 192 194 201 219 219 214 214 218 221 224 236 241 238 228 240 245 251 253 239 231 237 243 256 264 271 276 285 288 291 301 292
189 188 182 188 194 198 191 187 197 204 195 200 204 203 212 223 215 218 221 222 224 227 234 242 253 251 229 231 253 262 258 252 243 243 251 258 268 268 274 277 275 276 274
182 190 190 200 212 210 200 203 209 211 211 214 216 213 218 229 218 220 224 227 232 235 235 230 238 250 254 250 252 262 262 257 258 252 251 259 262 262 252 260 269 275 276
203 208 208 208 210 210 214 215 212 209 217 220 217 216 223 234 224 222 216 230 237 243 241 233 233 236 252 255 249 260 274 279 280 273 275 277 279 280 278 271 267 273 278
224 224 215 209 214 219 224 218 209 209 218 216 228 224 226 236 230 221 211 225 238 248 249 243 241 244 253 250 240 246 263 273 283 290 284 285 282 279 278 254 247 254 270
245 228 216 214 223 229 229 217 206 204 203 215 230 237 230 230 230 220 216 224 230 239 247 251 254 256 262 264 264 255 267 284 277 275 280 281 280 272 265 258 248 242 252
219 225 225 222 223 224 222 222 206 196 202 214 222 236 234 223 222 228 227 234 249 241 247 249 249 256 265 268 267 271 286 295 278 271 272 272 274 275 276 273 266 258 254
218 232 237 236 228 221 213 215 207 202 209 218 216 231 241 228 229 230 232 240 248 253 259 265 274 271 271 270 274 281 286 268 263 268 271 274 278 280 283 284 277 274 274
220 232 226 220 228 228 227 216 213 213 217 221 221 228 236 230 228 226 232 237 241 248 261 271 272 272 274 278 277 268 256 246 244 255 272 285 298 293 278 273 279 291 290
224 222 220 218 220 224 228 226 224 225 217 222 226 222 220 232 233 236 238 233 224 223 238 298 276 268 260 271 277 273 267 264 258 265 270 280 287 289 293 296 277 275 271
213 217 215 216 218 221 228 250 242 240 242 237 236 235 243 248 254 237 240 248 246 237 193 226 237 240 244 249 256 269 265 259 261 266 269 273 281 288 293 295 292 276 275
212 216 216 216 218 220 221 223 247 258 248 248 247 245 248 256 250 240 240 245 239 207 205 230 235 239 244 246 247 253 258 259 260 257 263 269 275 280 285 286 287 290 286
217 213 213 217 218 219 221 221 221 226 244 258 256 250 256 261 259 248 237 218 228 219 228 232 236 241 243 245 247 251 258 258 251 253 257 261 261 268 277 280 279 278 285
216 215 214 216 220 221 220 221 220 223 234 248 270 262 255 260 261 249 215 207 223 235 241 248 247 244 242 243 246 248 249 251 252 250 252 254 255 258 266 271 276 278 279
224 222 213 215 216 216 212 215 219 224 231 234 237 239 224 217 233 237 223 224 231 240 241 242 247 248 247 245 245 244 249 254 254 253 254 253 252 252 259 265 268 272 274
225 220 211 213 218 216 211 215 219 222 228 234 239 233 222 217 226 231 230 231 234 240 244 245 244 244 244 244 243 245 248 254 253 252 254 255 254 255 257 261 265 267 272
220 214 214 219 221 221 221 221 220 224 229 235 244 238 230 228 233 236 238 241 242 242 241 245 251 248 240 237 237 242 250 255 255 253 254 255 255 255 257 259 263 267 268
224 221 221 223 221 220 223 225 225 228 233 235 235 236 234 233 237 241 244 246 247 249 245 242 248 255 255 250 241 236 241 248 252 249 250 254 255 255 255 258 259 264 267
232 227 226 223 219 220 225 228 231 233 234 235 236 237 240 241 244 248 251 251 251 250 247 245 247 251 253 255 253 251 250 251 247 245 244 248 252 256 256 257 260 262 265
239 237 234 228 225 227 230 232 233 235 235 237 238 242 244 246 249 253 252 252 252 253 253 251 252 252 252 254 257 259 260 260 256 246 242 244 248 250 253 256 260 265 267
251 253 251 244 236 231 231 234 237 238 241 244 245 246 249 252 254 256 256 256 258 260 258 254 252 254 258 259 260 264 264 264 261 250 241 241 244 249 251 257 259 263 267